1289865633132,17.3184
1289865693132,17.3134
1289865753132,17.2985
1289865813132,17.3254
1289865873132,17.2935
1289865933132,17.2780
1289865993132,17.3229
1289866053132,17.3327
1289866113132,17.3266
1289866173132,17.3525
1289866233132,17.3553
1289866293132,17.3704
1289866353132,17.3921
1289866413132,17.2887
1289866473132,17.3442
1289866533132,17.3927
1289866593132,17.3708
1289866653132,17.3461
1289866713132,17.3366
1289866773132,17.2882
1289866833132,17.3095
1289866893132,17.3387
1289866953132,17.3124
1289867013132,17.3275
1289867073132,17.2910
1289867133132,17.3754
1289867193132,17.3295
1289867253132,17.3211
1289867313132,17.3221
1289867373132,17.2880
1289867433132,17.3065
1289867493132,17.2745
1289867553132,17.3219
1289867613132,17.3329
1289867673132,17.2918
1289867733132,17.3425
1289867793132,17.3353
1289867853132,17.3577
1289867913132,17.3511
1289867973132,17.2925
1289868033132,17.3281
1289868093132,17.2859
1289868153132,17.3105
1289868213132,17.2848
1289868273132,17.3325
1289868333132,17.2844
1289868393132,17.2911
1289868453132,17.2920
1289868513132,17.3074
1289868573132,17.2852
1289868633132,17.2996
1289868693132,17.3205
1289868753132,17.2802
1289868813132,17.3113
1289868873132,17.2469
1289868933132,17.2764
1289868993132,17.2696
1289869053132,17.2448
1289869113132,17.2591
1289869173132,17.2298
1289869233142,17.2706
1289869293142,17.2887
1289869353142,17.2927
1289869413142,17.2836
1289869473142,17.3097
1289869533142,17.2876
1289869593142,17.2789
1289869653142,17.2542
1289869713142,17.2824
1289869773142,17.3285
1289869833142,17.2748
1289869893142,17.3232
1289869953142,17.2431
1289870013142,17.3294
1289870073142,17.2349
1289870133142,17.2919
1289870193142,17.3018
1289870253142,17.2678
1289870313142,17.3170
1289870373142,17.2418
1289870433142,17.3505
1289870493142,17.2892
1289870553142,17.2679
1289870613142,17.3009
1289870673142,17.3173
1289870733142,17.3528
1289870793142,17.3666
1289870853142,17.3469
1289870913142,17.3706
1289870973142,17.3368
1289871033142,17.3324
1289871093142,17.3509
1289871153142,17.3223
1289871213142,17.3444
1289871273142,17.3083
1289871333142,17.3709
1289871393142,17.3336
1289871453142,17.3011
1289871513142,17.3147
1289871573142,17.2830
1289871633142,17.3285
1289871693142,17.3165
1289871753142,17.3153
1289871813142,17.3102
1289871873142,17.3160
1289871933142,17.2772
1289871993142,17.3140
1289872053142,17.3068
1289872113142,17.3351
1289872173142,17.2640
1289872233142,17.3658
1289872293142,17.3436
1289872353142,17.3110
1289872413142,17.2822
1289872473142,17.2931
1289872533142,17.3548
1289872593142,17.3189
1289872653142,17.2992
1289872713142,17.2641
1289872773142,17.2720
1289872833152,17.3312
1289872893152,17.3179
1289872953152,17.3074
1289873013152,17.2673
1289873073152,17.2822
1289873133152,17.3035
1289873193152,17.3100
1289873253153,17.2783
1289873313153,17.2848
1289873373153,17.3082
1289873433153,17.2813
1289873493153,17.3394
1289873553152,17.3555
1289873613152,17.3321
1289873673152,17.3991
1289873733152,17.3122
1289873793152,17.3638
1289873853152,17.3162
1289873913152,17.3034
1289873973152,17.3284
1289874033152,17.3134
1289874093152,17.3024
1289874153152,17.2866
1289874213152,17.2812
1289874273152,17.2818
1289874333152,17.2726
1289874393152,17.2934
1289874453152,17.2737
1289874513152,17.2812
1289874573152,17.2736
1289874633153,17.3228
1289874693153,17.3216
1289874753153,17.2839
1289874813153,17.2812
1289874873153,17.2562
1289874933152,17.3207
1289874993152,17.3125
1289875053152,17.3165
1289875113152,17.2599
1289875173152,17.2563
1289875233152,17.2608
1289875293152,17.2685
1289875353152,17.2568
1289875413152,17.3176
1289875473152,17.2357
1289875533152,17.3073
1289875593152,17.3061
1289875653152,17.3396
1289875713152,17.3071
1289875773152,17.3089
1289875833152,17.3095
1289875893152,17.3172
1289875953153,17.3727
1289876013153,17.3383
1289876073153,17.3902
1289876133153,17.3767
1289876193153,17.3507
1289876253152,17.4060
1289876313152,17.3656
1289876373152,17.4258
1289876433163,17.5790
1289876493163,17.7499
1289876553163,17.7302
1289876613163,17.7553
1289876673163,17.6921
1289876733163,17.5270
1289876793163,17.5612
1289876853163,17.5539
1289876913163,17.5325
1289876973163,17.5304
1289877033163,17.5012
1289877093163,17.3712
1289877633163,17.4153
1289877693163,17.3833
1289877753163,17.4221
1289877813163,17.4077
1289877873163,17.4927
1289877933163,17.4366
1289877993163,17.4371
1289878053163,17.3696
1289878113163,17.3556
1289878173163,17.4639
1289878233163,17.3318
1289878293163,17.3259
1289878353163,17.3336
1289878413163,17.3607
1289878473163,17.3068
1289878533163,17.3723
1289878593162,17.3452
1289878653162,17.3235
1289878713162,17.3185
1289878773162,17.3239
1289878833162,17.3194
1289878893162,17.3557
1289878953163,17.3053
1289879013163,17.3429
1289879073163,17.3714
1289879133163,17.3332
1289879193163,17.3462
1289879253163,17.3904
1289879313163,17.3881
1289879373163,17.3812
1289879433163,17.4082
1289879493163,17.3406
1289879553163,17.4219
1289879613163,17.3710
1289879673163,17.3858
1289879733163,17.3191
1289879793163,17.3736
1289879853163,17.3958
1289879913163,17.3482
1289879973162,17.3349
1289880033173,17.3790
1289880093173,17.3327
1289880153173,17.3194
1289880213173,17.2957
1289880273173,17.3055
1289880333173,17.2859
1289880393173,17.2739
1289880453173,17.2791
1289880513173,17.2569
1289880573173,17.3336
1289880633173,17.3002
1289880693173,17.2715
1289880753173,17.2634
1289880813173,17.3048
1289880873173,17.3358
1289880933172,17.3002
1289880993173,17.3237
1289881053173,17.3194
1289881113173,17.3664
1289881173173,17.3181
1289881233173,17.3143
1289881293173,17.3254
1289881353173,17.3200
1289881413173,17.2959
1289881473173,17.2919
1289881533173,17.2153
1289881593173,17.3415
1289881653173,17.2338
1289881713173,17.2567
1289881773173,17.2996
1289881833173,17.3215
1289881893173,17.2979
1289881953173,17.2688
1289882013173,17.2658
1289882073173,17.3363
1289882133173,17.2401
1289882193173,17.3037
1289882253172,17.2465
1289882313172,17.2884
1289882373173,17.2581
1289882433173,17.2650
1289882493173,17.2650
1289882553173,17.2554
1289882613173,17.1934
1289882673173,17.2693
1289882733173,17.3226
1289882793173,17.2907
1289882853173,17.2873
1289882913173,17.3501
1289882973173,17.3102
1289883033173,17.2887
1289883093173,17.3105
1289883153173,17.3230
1289883213173,17.3040
1289883273173,17.2700
1289883333173,17.2773
1289883393173,17.2723
1289883453173,17.2907
1289883513173,17.2689
1289883573173,17.2125
1289883633183,17.2359
1289883693183,17.2067
1289883753183,17.2752
1289883813183,17.2524
1289883873183,17.2583
1289883933183,17.2722
1289883993183,17.2584
1289884053183,17.3272
1289884113183,17.2656
1289884173183,17.2738
1289884233183,17.2413
1289884293183,17.2497
1289884353183,17.2768
1289884413183,17.2242
1289884473183,17.2876
1289884533183,17.2795
1289884593183,17.2225
1289884653183,17.2256
1289884713183,17.2740
1289884773183,17.2444
1289884833183,17.2846
1289884893183,17.2950
1289884953183,17.3471
1289885013183,17.2569
1289885073183,17.3011
1289885133183,17.2480
1289885193183,17.3574
1289885253183,17.3432
1289885313183,17.2828
1289885373183,17.2917
1289885433183,17.2900
1289885493183,17.2534
1289885553183,17.3259
1289885613183,17.2781
1289885673183,17.2887
1289885733183,17.2813
1289885793183,17.2293
1289885853183,17.3008
1289885913183,17.2848
1289885973183,17.2702
1289886033183,17.2411
1289886093183,17.2797
1289886153183,17.2055
1289886213183,17.2327
1289886273183,17.2191
1289886333183,17.2787
1289886393183,17.2559
1289886453183,17.2810
1289886513183,17.2454
1289886573183,17.2472
1289886633183,17.2835
1289886693183,17.2611
1289886753183,17.2140
1289886813183,17.2057
1289886873183,17.2652
1289886933183,17.2933
1289886993183,17.3482
1289887053183,17.2635
1289887113183,17.2764
1289887173183,17.2732
1289887233193,17.3139
1289887293193,17.2585
1289887353193,17.3175
1289887413193,17.3159
1289887473193,17.3558
1289887533193,17.3074
1289887593193,17.3211
1289887653193,17.3348
1289887713193,17.3575
1289887773193,17.3173
1289887833193,17.3625
1289887893193,17.3054
1289887953193,17.3454
1289888013193,17.2766
1289888073193,17.2944
1289888133193,17.3173
1289888193193,17.3518
1289888253193,17.3021
1289888313193,17.3427
1289888373193,17.2701
1289888433193,17.2827
1289888493193,17.3457
1289888553193,17.3044
1289888613193,17.2699
1289888673193,17.2441
1289888733193,17.2944
1289888793193,17.2866
1289888853193,17.2850
1289888913193,17.2931
1289888973193,17.3303
1289889033193,17.2706
1289889093193,17.2970
1289889153193,17.3189
1289889213193,17.3519
1289889273193,17.3198
1289889333193,17.2964
1289889393193,17.3816
1289889453193,17.4000
1289889513193,17.4004
1289889573193,17.4180
1289889633193,17.4125
1289889693193,17.4673
1289889753193,17.4521
1289889813193,17.4423
1289889873193,17.4542
1289889933193,17.4462
1289889993193,17.4972
1289890053193,17.4391
1289890113193,17.4401
1289890173193,17.4151
1289890233193,17.4491
1289890293193,17.5131
1289890353193,17.4572
1289890413193,17.4920
1289890473193,17.4537
1289890533193,17.4673
1289890593193,17.4054
1289890653193,17.4120
1289890713193,17.4573
1289890773193,17.3833
1289890833203,17.3776
1289890893203,17.3673
1289890953203,17.3414
1289891013203,17.3350
1289891073203,17.3661
1289891133203,17.3190
1289891193203,17.2910
1289891253203,17.3350
1289891313203,17.3372
1289891373203,17.2933
1289891433203,17.3080
1289891493203,17.3562
1289891553203,17.3724
1289891613203,17.4227
1289891673203,17.4312
1289891733203,17.3701
1289891793203,17.3430
1289891853203,17.3939
1289891913203,17.3406
1289891973203,17.3115
1289892033203,17.3493
1289892093203,17.3098
1289892153203,17.3059
1289892213203,17.3144
1289892273203,17.3250
1289892333203,17.3126
1289892393203,17.2786
1289892453203,17.2997
1289892513203,17.2733
1289892573203,17.3183
1289892633203,17.2925
1289892693203,17.3355
1289892753203,17.3306
1289892813203,17.2924
1289892873203,17.3226
1289892933203,17.2660
1289892993203,17.3355
1289893053203,17.2677
1289893113203,17.3083
1289893173203,17.2450
1289893233203,17.2610
1289893293203,17.2108
1289893353203,17.2738
1289893413203,17.3129
1289893473203,17.3111
1289893533203,17.2642
1289893593203,17.2866
1289893653203,17.2723
1289893713203,17.2575
1289893773203,17.3063
1289893833203,17.2881
1289893893203,17.3090
1289893953203,17.2868
1289894013203,17.2970
1289894073203,17.2946
1289894133203,17.2230
1289894193203,17.6727
1289894253203,17.2546
1289894313203,17.2386
1289894373203,17.2558
1289894433214,17.2719
1289894493214,17.2975
1289894553214,17.2865
1289894613214,17.2834
1289894673214,17.2582
1289894733214,17.2536
1289894793214,17.2190
1289894853214,17.2191
1289894913214,17.2853
1289894973214,17.2464
1289895033214,17.1988
1289895093214,17.2084
1289895153214,17.2303
1289895213214,17.2492
1289895273214,17.1939
1289895333214,17.2424
1289895393214,17.1923
1289895453214,17.2475
1289895513214,17.2508
1289895573214,17.2674
1289895633214,17.2626
1289895693214,17.2647
1289895753214,17.2715
1289895813214,17.2463
1289895873214,17.2893
1289895933214,17.2913
1289895993214,17.2446
1289896053214,17.3198
1289896113214,17.2873
1289896173214,17.3249
1289896233214,17.3126
1289896293214,17.2885
1289896353214,17.2897
1289896413214,17.2845
1289896473214,17.3541
1289896533214,17.2476
1289896593214,17.2480
1289896653214,17.2574
1289896713214,17.2388
1289896773214,17.2879
1289896833214,17.2526
1289896893214,17.2800
1289896953214,17.2610
1289897013214,17.2855
1289897073214,17.2514
1289897133214,17.2811
1289897193214,17.2774
1289897253214,17.2751
1289897313214,17.2530
1289897373214,17.2458
1289897433214,17.2694
1289897493214,17.2082
1289897553214,17.2250
1289897613214,17.2764
1289897673214,17.2177
1289897733214,17.2611
1289897793214,17.2225
1289897853214,17.1907
1289897913214,17.2112
1289897973214,17.2223
1289898033225,17.2310
1289898093225,17.2949
1289898153225,17.2769
1289898213225,17.2694
1289898273225,17.2861
1289898333225,17.2345
1289898393225,17.2501
1289898453225,17.2411
1289898513225,17.2295
1289898573225,17.1598
1289898633225,17.2452
1289898693225,17.1824
1289898753225,17.2602
1289898813225,17.2194
1289898873225,17.1663
1289898933225,17.1970
1289898993225,17.1660
1289899053225,17.2134
1289899113225,17.2332
1289899173225,17.2563
1289899233225,17.2417
1289899293225,17.1700
1289899353225,17.2168
1289899413225,17.2075
1289899473225,17.2161
1289899533225,17.2170
1289899593225,17.1832
1289899653225,17.2033
1289899713225,17.2178
1289899773225,17.2242
1289899833225,17.2104
1289899893225,17.2177
1289899953225,17.2204
1289900013225,17.2412
1289900073225,17.2661
1289900133225,17.2972
1289900193225,17.2431
1289900253225,17.3032
1289900313225,17.2761
1289900373225,17.2294
1289900433225,17.2443
1289900493225,17.2583
1289900553225,17.1975
1289900613225,17.2168
1289900673225,17.2369
1289900733225,17.2272
1289900793225,17.2979
1289900853225,17.2413
1289900913225,17.2414
1289900973225,17.2016
1289901033225,17.2468
1289901093225,17.2350
1289901153225,17.2552
1289901213225,17.2258
1289901273225,17.2451
1289901333225,17.2733
1289901393225,17.2263
1289901453225,17.3055
1289901513225,17.2382
1289901573225,17.2612
1289901633236,17.2756
1289901693236,17.2572
1289901753236,17.2707
1289901813236,17.1949
1289901873236,17.1884
1289901933236,17.2491
1289901993236,17.2533
1289902053236,17.1635
1289902113236,17.2454
1289902173236,17.1573
1289902233236,17.2065
1289902293236,17.1446
1289902353236,17.1753
1289902413236,17.1626
1289902473236,17.1609
1289902533236,17.2351
1289902593236,17.2024
1289902653236,17.2328
1289902713236,17.2139
1289902773236,17.2317
1289902833236,17.2108
1289902893236,17.2107
1289902953236,17.1788
1289903013236,17.2292
1289903073236,17.2126
1289903133236,17.1886
1289903193236,17.2319
1289903253236,17.1988
1289903313236,17.2273
1289903373236,17.1795
1289903433236,17.2080
1289903493236,17.1569
1289903553236,17.1771
1289903613236,17.2161
1289903673236,17.1523
1289903733236,17.1723
1289903793236,17.1229
1289903853236,17.1200
1289903913236,17.1983
1289903973236,17.1492
1289904033236,17.1292
1289904093236,17.2295
1289904153236,17.2121
1289904213236,17.1412
1289904273236,17.1768
1289904333236,17.1779
1289904393236,17.1624
1289904453236,17.1977
1289904513236,17.2134
1289904573236,17.2557
1289904633236,17.2278
1289904693236,17.2506
1289904753236,17.2314
1289904813236,17.2411
1289904873236,17.2333
1289904933236,17.2250
1289904993236,17.2419
1289905053236,17.2356
1289905113236,17.2490
1289905173236,17.2989
1289905233248,17.2654
1289905293248,17.3285
1289905353248,17.3003
1289905413248,17.2994
1289905473248,17.2627
1289905533248,17.2741
1289905593248,17.2815
1289905653248,17.3269
1289905713248,17.3078
1289905773248,17.2879
1289905833248,17.2878
1289905893248,17.2617
1289905953248,17.2819
1289906013248,17.2302
1289906073248,17.2492
1289906133248,17.2600
1289906193248,17.2134
1289906253248,17.2010
1289906313248,17.2437
1289906373248,17.1881
1289906433248,17.2233
1289906493248,17.2162
1289906553248,17.2232
1289906613248,17.2429
1289906673248,17.2425
1289906733248,17.2552
1289906793248,17.2731
1289906853248,17.2391
1289906913248,17.2396
1289906973248,17.2737
1289907033248,17.2148
1289907093248,17.2027
1289907153248,17.2185
1289907213248,17.1645
1289907273248,17.2222
1289907333248,17.2402
1289907393248,17.2015
1289907453248,17.1784
1289907513248,17.2319
1289907573248,17.2083
1289907633248,17.1794
1289907693248,17.2052
1289907753248,17.1968
1289907813248,17.2322
1289907873248,17.2605
1289907933248,17.2405
1289907993248,17.2245
1289908053248,17.2412
1289908113248,17.2094
1289908173248,17.1655
1289908233248,17.2177
1289908293248,17.2233
1289908353248,17.1650
1289908413248,17.2709
1289908473248,17.2370
1289908533248,17.1855
1289908593248,17.2647
1289908653248,17.3039
1289908713248,17.2887
1289908773248,17.2831
1289908833259,17.3165
1289908893259,17.3770
1289908953259,17.3757
1289909013259,17.4345
1289909073259,17.4175
1289909133259,17.3267
1289909193259,17.3100
1289909253259,17.2971
1289909313259,17.2477
1289909373259,17.3344
1289909433259,17.2773
1289909493259,17.3150
1289909553259,17.2857
1289909613259,17.3064
1289909673259,17.3069
1289909733259,17.2796
1289909793259,17.3121
1289909853259,17.3265
1289909913259,17.2826
1289909973259,17.2819
1289910033259,17.3386
1289910093259,17.2850
1289910153259,17.3500
1289910213259,17.3051
1289910273259,17.3323
1289910333259,17.3300
1289910393259,17.3674
1289910453259,17.3312
1289910513259,17.3149
1289910573259,17.2912
1289910633259,17.2975
1289910693259,17.2790
1289910753259,17.2800
1289910813259,17.3177
1289910873259,17.3408
1289910933259,17.3248
1289910993259,17.3325
1289911053259,17.3099
1289911113259,17.2107
1289911173259,17.3559
1289911233259,17.2805
1289911293259,17.3176
1289911353259,17.3498
1289911413259,17.3019
1289911473259,17.3060
1289911533259,17.3060
1289911593259,17.2829
1289911653259,17.3486
1289911713259,17.3685
1289911773259,17.3089
1289911833259,17.3467
1289911893259,17.3244
1289911953259,17.3384
1289912013259,17.2977
1289912073259,17.3105
1289912133259,17.3202
1289912193259,17.2431
1289912253259,17.2803
1289912313259,17.3218
1289912373259,17.2723
1289912433271,17.2523
1289912493271,17.2609
1289912553271,17.2775
1289912613271,17.2142
1289912673271,17.1769
1289912733271,17.2096
1289912793271,17.2606
1289912853271,17.2722
1289912913271,17.2745
1289912973271,17.2358
1289913033271,17.2373
1289913093271,17.2766
1289913153271,17.1801
1289913213271,17.2248
1289913273271,17.2611
1289913333271,17.2436
1289913393271,17.2008
1289913453271,17.2196
1289913513271,17.1968
1289913573271,17.2132
1289913633271,17.2075
1289913693271,17.1871
1289913753271,17.1943
1289913813271,17.2017
1289913873271,17.2341
1289913933271,17.2650
1289913993271,17.2280
1289914053271,17.2038
1289914113271,17.1945
1289914173271,17.1922
1289914233271,17.1570
1289914293271,17.1708
1289914353271,17.2159
1289914413271,17.1831
1289914473271,17.2524
1289914533271,17.1765
1289914593271,17.2342
1289914653271,17.2168
1289914713271,17.2725
1289914773271,17.2790
1289914833271,17.2851
1289914893271,17.3011
1289914953271,17.3346
1289915013271,17.2773
1289915073271,17.2647
1289915133271,17.2922
1289915193271,17.2589
1289915253271,17.2625
1289915313271,17.2826
1289915373271,17.2672
1289915433271,17.2280
1289915493271,17.2834
1289915553271,17.2885
1289915613271,17.2680
1289915673271,17.3341
1289915733271,17.2596
1289915793271,17.2277
1289915853271,17.3042
1289915913271,17.2507
1289915973271,17.3088
1289916033283,17.2589
1289916093283,17.3006
1289916153283,17.2302
1289916213283,17.2576
1289916273283,17.2524
1289916333283,17.3125
1289916393283,17.2650
1289916453283,17.2710
1289916513283,17.2354
1289916573283,17.2268
1289916633283,17.2601
1289916693283,17.2139
1289916753283,17.2769
1289916813283,17.2351
1289916873283,17.1827
1289916933283,17.1959
1289916993283,17.2686
1289917053283,17.2239
1289917113283,17.2878
1289917173283,17.2659
1289917233283,17.2670
1289917293283,17.2157
1289917353283,17.2700
1289917413283,17.2687
1289917473283,17.2841
1289917533283,17.2845
1289917593283,17.2494
1289917653283,17.2519
1289917713283,17.2827
1289917773283,17.2658
1289917833283,17.2729
1289917893283,17.2365
1289917953283,17.2510
1289918013283,17.2913
1289918073283,17.2398
1289918133283,17.2941
1289918193283,17.3516
1289918253283,17.2853
1289918313283,17.3517
1289918373283,17.3781
1289918433283,17.3543
1289918493283,17.3557
1289918553283,17.3710
1289918613283,17.4436
1289918673283,17.3869
1289918733283,17.3531
1289918793283,17.3102
1289918853283,17.2875
1289918913283,17.2860
1289918973283,17.3786
1289919033283,17.3210
1289919093283,17.2744
1289919153283,17.2883
1289919213283,17.2853
1289919273283,17.2584
1289919333283,17.3179
1289919393283,17.2651
1289919453283,17.2501
1289919513283,17.2531
1289919573283,17.2970
1289919633296,17.3220
1289919693296,17.2733
1289919753296,17.2873
1289919813296,17.3049
1289919873296,17.3009
1289919933296,17.2572
1289919993296,17.2620
1289920053296,17.2623
1289920113296,17.2662
1289920173296,17.2881
1289920233296,17.2836
1289920293296,17.2271
1289920353296,17.2246
1289920413296,17.2063
1289920473296,17.2475
1289920533296,17.1758
1289920593296,17.2487
1289920653295,17.2793
1289920713295,17.2086
1289920773296,17.2312
1289920833296,17.2322
1289920893296,17.1786
1289920953296,17.2371
1289921013296,17.2632
1289921073296,17.2283
1289921133296,17.1356
1289921193296,17.1831
1289921253296,17.2119
1289921313296,17.1993
1289921373296,17.1932
1289921433296,17.2008
1289921493296,17.2060
1289921553296,17.1937
1289921613296,17.2733
1289921673296,17.2199
1289921733296,17.2537
1289921793296,17.2592
1289921853296,17.2668
1289921913296,17.2315
1289921973295,17.1638
1289922033295,17.1812
1289922093295,17.2543
1289922153296,17.2442
1289922213296,17.2998
1289922273296,17.3084
1289922333296,17.2902
1289922393296,17.2854
1289922453296,17.2806
1289922513296,17.2999
1289922573296,17.3102
1289922633296,17.2923
1289922693296,17.3119
1289922753296,17.3381
1289922813296,17.3103
1289922873296,17.3080
1289922933296,17.3326
1289922993296,17.3286
1289923053296,17.3269
1289923113296,17.2951
1289923173296,17.3123
1289923233308,17.3025
1289923293308,17.3001
1289923353308,17.3008
1289923413308,17.2951
1289923473308,17.2821
1289923533308,17.3059
1289923593308,17.2689
1289923653308,17.2535
1289923713308,17.2696
1289923773308,17.2699
1289923833308,17.2945
1289923893308,17.3583
1289923953308,17.3029
1289924013308,17.2786
1289924073308,17.3124
1289924133308,17.3263
1289924193308,17.2935
1289924253308,17.3157
1289924313308,17.3863
1289924373308,17.4202
1289924433308,17.2927
1289924493308,17.3129
1289924553308,17.3140
1289924613308,17.2918
1289924673308,17.3048
1289924733308,17.2876
1289924793308,17.3113
1289924853308,17.3045
1289924913308,17.2662
1289924973308,17.3273
1289925033308,17.2887
1289925093308,17.3480
1289925153308,17.3548
1289925213308,17.3047
1289925273308,17.3338
1289925333308,17.4624
1289925393308,17.2989
1289925453308,17.3064
1289925513308,17.3073
1289925573308,17.3118
1289925633308,17.2714
1289925693308,17.3087
1289925753308,17.3136
1289925813308,17.3198
1289925873308,17.3435
1289925933308,17.3567
1289925993308,17.4045
1289926053308,17.3774
1289926113308,17.3677
1289926173308,17.3611
1289926233308,17.3512
1289926293308,17.3444
1289926353308,17.3585
1289926413308,17.3707
1289926473308,17.2808
1289926533308,17.3419
1289926593308,17.4054
1289926653308,17.3831
1289926713308,17.3009
1289926773308,17.3050
1289926833319,17.3374
1289926893319,17.3055
1289926953319,17.3440
1289927013319,17.3157
1289927073319,17.3419
1289927133319,17.3496
1289927193319,17.3872
1289927253319,17.2875
1289927313319,17.2972
1289927373319,17.2737
1289927433319,17.3125
1289927493319,17.3340
1289927553319,17.2906
1289927613319,17.3163
1289927673319,17.3069
1289927733319,17.3419
1289927793319,17.3085
1289927853319,17.2946
1289927913319,17.3062
1289927973319,17.3184
1289928033319,17.3175
1289928093319,17.3248
1289928153319,17.3459
1289928213319,17.3060
1289928273319,17.3094
1289928333319,17.2843
1289928393319,17.2955
1289928453319,17.3367
1289928513319,17.2821
1289928573319,17.2862
1289928633319,17.2530
1289928693319,17.3083
1289928753319,17.2994
1289928813319,17.3376
1289928873319,17.2959
1289928933319,17.3396
1289928993319,17.3269
1289929053319,17.3459
1289929113319,17.3523
1289929173319,17.3539
1289929233319,17.3501
1289929293319,17.3511
1289929353319,17.3655
1289929413319,17.3867
1289929473319,17.3897
1289929533319,17.3147
1289929593319,17.3395
1289929653319,17.3019
1289929713319,17.3679
1289929773319,17.3666
1289929833319,17.3652
1289929893319,17.4106
1289929953319,17.3528
1289930013319,17.3620
1289930073319,17.3684
1289930133319,17.3194
1289930193319,17.3097
1289930253319,17.2680
1289930313319,17.2761
1289930373319,17.3382
1289930433331,17.3211
1289930493331,17.3023
1289930553331,17.3280
1289930613331,17.3246
1289930673331,17.3304
1289930733331,17.2937
1289930793331,17.3085
1289930853331,17.3272
1289930913331,17.3929
1289930973331,17.3681
1289931033331,17.2969
1289931093331,17.3139
1289931153331,17.3004
1289931213331,17.3568
1289931273331,17.3540
1289931333331,17.3537
1289931393331,17.2953
1289931453331,17.3751